Regional Weather Roundup
Issued by NWS Little Rock, AR

Home | Current Version | Previous Version | Graphics & Text | Print | Product List | Glossary On
Versions: 1 2 3 4 5 6 7 8 9 10 11 12 13 14 15 16 17 18 19 20 21 22 23 24 25 26 27 28 29 30 31 32 33 34 35 36 37 38 39 40 41 42
000
ASUS44 KLZK 011705
RWRLZK

WEATHER ROUNDUP FOR ARKANSAS
NATIONAL WEATHER SERVICE LITTLE ROCK AR
1200 PM CDT WED OCT 01 2014

NOTE: "FAIR" INDICATES FEW OR NO CLOUDS BELOW 12,000 FEET WITH NO
SIGNIFICANT WEATHER AND/OR OBSTRUCTIONS TO VISIBILITY.

ARZ001-003-010-029-011800-
NORTHWEST ARKANSAS

CITY           SKY/WX    TMP DP  RH WIND       PRES   REMARKS
FAYETTEVILLE   MOSUNNY   81  68  64 S16       29.87F
FORT SMITH     PTSUNNY   82  68  62 SW5       29.85S HX  85
HARRISON       SUNNY     82  68  62 S10       29.90S HX  85
BENTONVILLE    CLOUDY    81  66  61 S13       29.87F
ROGERS         PTSUNNY   79  67  66 S15       29.87F
SILOAM SPGS    CLOUDY    79  66  65 S14       29.87F
HIGHFILL       CLOUDY    79  68  69 S14G25    29.86F
SPRINGDALE     PTSUNNY   81  68  65 S16G24    29.89F
$$

ARZ004-005-016-011800-
NORTH CENTRAL ARKANSAS

CITY           SKY/WX    TMP DP  RH WIND       PRES   REMARKS
BATESVILLE     PTSUNNY   88  66  48 S13G20    29.89F HX  90
FLIPPIN        MOSUNNY   82  64  54 SW10      29.88F
MTN HOME       SUNNY     83  66  56 SE9       29.89S HX  85
$$

ARZ040-041-011800-
WEST CENTRAL ARKANSAS

CITY           SKY/WX    TMP DP  RH WIND       PRES   REMARKS
MENA           MOSUNNY   84  70  61 CALM      29.89S HX  88
MOUNT IDA      MOSUNNY   82  70  66 VRB7      29.87F HX  86
$$

ARZ009-017-025-026-028-011800-
NORTHEAST ARKANSAS

CITY           SKY/WX    TMP DP  RH WIND       PRES   REMARKS
CORNING        LGT RAIN  86  68  54 S16       29.91F HX  89
JONESBORO      PTSUNNY   88  67  49 SW14G20   29.90F HX  91
NEWPORT        SUNNY     88  69  53 SW13      29.91F HX  92
WALNUT RIDGE   SUNNY     86  66  51 SW15G21   29.90S HX  88
BLYTHEVILLE    CLOUDY    86  63  45 S10       29.94S HX  87
NW BLYTHEVILLE MOSUNNY   88  63  42 S9G17     29.92F HX  88
$$

ARZ022-023-033-042-044-011800-
CENTRAL ARKANSAS

CITY           SKY/WX    TMP DP  RH WIND       PRES   REMARKS
LITTLE ROCK    PTSUNNY   85  68  56 SW13G21   29.90S HX  88
N LITTLE ROCK  PTSUNNY   85  71  62 S8G15     29.90S HX  90
JACKSONVILLE   SUNNY     85  69  59 VRB6      29.90S HX  89
SEARCY         MOSUNNY   85  71  63 S7        29.91F HX  90
HOT SPRINGS    CLOUDY    78  71  79 SE8       29.91S
RUSSELLVILLE   MOSUNNY   82  69  64 SE7       29.88F HX  85
CLINTON        PTSUNNY   79  72  78 W3        29.91F HAZE
$$

ARZ036-011800-
EAST ARKANSAS

CITY           SKY/WX    TMP DP  RH WIND       PRES   REMARKS
WEST MEMPHIS   SUNNY     86  67  52 S9G17     29.92S HX  89
$$

ARZ050-053-066-070-073-011800-
SOUTHWEST ARKANSAS

CITY           SKY/WX    TMP DP  RH WIND       PRES   REMARKS
ARKADELPHIA    FAIR      84  75  74 S7        29.89F HX  91
CAMDEN         PTSUNNY   86  68  54 SW8       29.89S HX  89
TEXARKANA      PTSUNNY   82  72  71 S12       29.89S HX  87
EL DORADO      MOSUNNY   85  71  63 S12       29.90F HX  90
DE QUEEN       PTSUNNY   83  72  69 S9        29.85F HX  88
$$

ARZ056-057-069-011800-
SOUTHEAST ARKANSAS

CITY           SKY/WX    TMP DP  RH WIND       PRES   REMARKS
PINE BLUFF     MOSUNNY   84  71  65 S9        29.91F HX  89
STUTTGART      PTSUNNY  N/A N/A N/A S10       29.92S
MONTICELLO     PTSUNNY   83  70  64 S8        29.92R HX  87

$$





USA.gov is the U.S. government's official web portal to all federal, state and local government web resources and services.